034  
NZUS99 KIND 242109  
HRRIND  
 
WEATHER ROUNDUP FOR INDIANA AND SURROUNDING STATES  
NATIONAL WEATHER SERVICE INDIANAPOLIS IN  
400 PM EST WED FEB 24 2021  
   
..INDIANA
 
 
 
CITY SKY/WX TMP DP RH WIND PRES REMARKS  
INDIANAPOLIS PTSUNNY 52 33 48 W21G26 29.94R  
EAGLE CREEK MOSUNNY 50 34 54 NW13 29.93R  
MOUNT COMFORT MOSUNNY 50 39 66 W16G22 29.93R  
GREENWOOD MOSUNNY 51 34 51 NW7G18 29.94R  
SHELBYVILLE MOSUNNY 56 34 43 NW14G23 29.92R  

 
 
CITY SKY/WX TMP DP RH WIND PRES REMARKS  
LAFAYETTE MOSUNNY 45 34 65 W16G24 29.96R  
KOKOMO MOSUNNY 40 34 79 W14 29.92R WCI 32  
FRANKFORT MOSUNNY 41 34 75 W13G20 29.94R  
CRAWFORDSVILLE MOSUNNY 46 35 65 NW10 29.96R  
MUNCIE MOSUNNY 49 35 58 W15G26 29.89R  
GREENCASTLE FAIR 52 36 54 NW12 29.95R  
TERRE HAUTE MOSUNNY 54 39 57 NW12G18 29.97R  
BLOOMINGTON PTSUNNY 59 39 47 N12G20 29.93R  
COLUMBUS PTSUNNY 54 39 58 N14 29.93R  

 
 
CITY SKY/WX TMP DP RH WIND PRES REMARKS  
GARY MOSUNNY 41 32 70 NW12 29.94R  
VALPARAISO CLOUDY 41 31 67 N10G22 29.94R  
LA PORTE PTSUNNY 39 31 75 NW16 29.94R WCI 30  
MICHIGAN CITY CLOUDY 37 32 81 N9G18 29.96R WCI 31  
SOUTH BEND CLOUDY 39 31 72 NW13G24 29.93R WCI 31  
ELKHART CLOUDY 37 32 81 NW15 29.91R WCI 28  
GOSHEN CLOUDY 39 30 70 NW16G24 29.90R WCI 30  
ANGOLA CLOUDY 39 32 75 NW14G22 29.84R WCI 31  
KENDALLVILLE CLOUDY 40 32 72 NW10G18 29.87R WCI 34  
AUBURN MOSUNNY 41 32 70 W15G23 29.86R  
RENSSELAER PTSUNNY 37 32 81 W15G23 29.96R WCI 28  
KNOX PTSUNNY 39 32 75 N12 29.93R WCI 32  
PLYMOUTH CLOUDY 41 30 65 NW12G21 29.92R  
ROCHESTER PTSUNNY 45 34 65 W8 29.92R  
WARSAW CLOUDY 39 32 75 NW13G22 29.91R WCI 32  
FORT WAYNE PTSUNNY 42 32 67 W14G23 29.88R  
MONTICELLO PTSUNNY 39 32 76 W12G17 29.94R WCI 32  
LOGANSPORT PTSUNNY 36 32 87 W8 29.94R WCI 29  
PERU/GRISSOM PTSUNNY 40 39 95 W13 29.91R WCI 33  
HUNTINGTON MOSUNNY 44 32 63 W10G16 29.89R  
MARION MOSUNNY 38 33 80 W14 29.91R WCI 30  
PORTLAND FAIR 46 32 57 W15 29.87R  
RICHMOND FAIR 50 37 62 W21G31 29.91R  
BATESVILLE CLOUDY 54 39 58 NW10 29.91R  
WASHINGTON SUNNY 59 43 56 NW13 29.95R  
FRENCH LICK PTSUNNY 59 39 47 W10G16 29.94R  
MADISON CLOUDY 55 43 62 W13G21 29.93R  
HUNTINGBURG PTSUNNY 60 44 55 W10 29.95R  
JEFFERSONVILLE PTSUNNY 61 42 49 W6 29.91R  
EVANSVILLE CLOUDY 61 42 49 NW7 29.96R  

 
   
..ILLINOIS
 
 
 
CITY SKY/WX TMP DP RH WIND PRES REMARKS  
CHICAGO PTSUNNY 41 32 70 NW18G26 29.96R  
MOLINE CLOUDY 40 30 67 NW15 30.06R WCI 32  
ROCKFORD CLOUDY 41 29 62 N13G24 30.03R  
KANKAKEE CLOUDY 39 32 75 NW14G22 29.99R WCI 31  
PEORIA PTSUNNY 40 31 70 NW10G26 30.06R WCI 33  
BLOOMINGTON MOSUNNY 45 35 68 NW17G25 30.02R  
CHAMPAIGN MOSUNNY 49 38 65 NW17 29.99R  
RANTOUL MOSUNNY 46 37 70 NW17G24 30.00R  
DANVILLE MOSUNNY 48 38 68 NW13 29.97R  
QUINCY MOSUNNY 46 34 62 NW13 30.08R  
SPRINGFIELD MOSUNNY 51 34 52 NW18G24 30.04R  
DECATUR MOSUNNY 51 33 50 NW17G28 30.01R  
MATTOON MOSUNNY 52 41 66 NW16 29.98R  
PARIS MOSUNNY 51 39 64 NW14 29.99R  
EFFINGHAM MOSUNNY 56 41 57 NW10G23 30.01R  
ROBINSON SUNNY 56 40 55 N16G22 29.97R  
OLNEY SUNNY 58 40 51 N13G20 29.98R  
LAWRENCEVILLE SUNNY 60 39 45 NW17 29.96R  
MOUNT VERNON SUNNY 60 38 43 VRB6 29.99R  
FAIRFIELD SUNNY 59 40 49 N7 29.97R  
MOUNT CARMEL SUNNY 59 41 52 N13 29.96R  
CARMI SUNNY 63 43 48 NW9G17 29.97R  

 
   
..KENTUCKY
 
 
 
CITY SKY/WX TMP DP RH WIND PRES REMARKS  
LOUISVILLE PTSUNNY 63 39 41 W15G24 29.91R  
PADUCAH CLOUDY 62 41 46 W8 29.96R  
OWENSBORO CLOUDY 60 45 57 NW12 29.95R  
FORT KNOX LGT RAIN 63 37 39 W12G21 29.93  
LEXINGTON CLOUDY 62 38 40 W20G28 29.89R  
BOWLING GREEN CLOUDY 68 35 29 SW9G23 29.93S  
JACKSON MOSUNNY 70 28 21 S9G25 29.90S  

 
   
..OHIO
 
 
 
CITY SKY/WX TMP DP RH WIND PRES REMARKS  
CINCINNATI LGT RAIN 55 44 66 W17G24 29.89R  
DAYTON PTSUNNY 55 37 50 W16 29.89R  
TOLEDO SUNNY 47 33 58 W17 29.79R  
DEFIANCE SUNNY 46 32 58 W12G23 29.83R  
FINDLAY MOSUNNY 47 37 68 W20G28 29.80R  
LIMA SUNNY 47 35 63 W17G30 29.84R  
WRIGHT-PAT AFB LGT RAIN 54 38 55 W14G20 29.87R  
COLUMBUS CLOUDY 51 44 77 W9 29.84R  
CLEVELAND CLOUDY 49 35 58 SW21G29 29.73R  

 
   
..MICHIGAN
 
 
 
CITY SKY/WX TMP DP RH WIND PRES REMARKS  
DETROIT PTSUNNY 49 33 54 W17G32 29.73R  
GRAND RAPIDS CLOUDY 38 31 76 NW15G28 29.84R WCI 29  
LANSING CLOUDY 39 32 76 W14G23 29.80R WCI 31  
KALAMAZOO CLOUDY 37 31 78 NW16G28 29.87R WCI 28  
BATTLE CREEK CLOUDY 37 32 82 W16 29.85R WCI 28  
MARSHALL CLOUDY 37 32 82 W14G22 29.83R WCI 28  
JACKSON CLOUDY 40 31 70 MISG 29.80R  
BENTON HARBOR CLOUDY 38 32 79 NW12G21 29.92R WCI 30  
STURGIS CLOUDY 39 32 76 NW14 29.87R WCI 30  
COLDWATER CLOUDY 38 32 78 W12G18 29.85R WCI 30  
HILLSDALE CLOUDY 40 32 74 W20G28 29.80R WCI 30  

 
   
..OTHER LOCATIONS
 
 
 
CITY SKY/WX TMP DP RH WIND PRES REMARKS  
SAINT LOUIS MO PTSUNNY 57 35 43 NW15 30.04R  
CAPE GIRARDEAU SUNNY 68 44 42 N8 29.95R  
MILWAUKEE WI PTSUNNY 41 27 57 N15G23 29.97R  
NASHVILLE TN MOSUNNY 75 32 20 SW15G28 29.94S  

 
 
 
 
CLICK HERE TO GO TO PREVIOUS BULLETINS.

The Nexlab IN Page Main Text Page